Location: Gro�sch�nbrunn
(49.5760°N, 11.8868°E)
Time: 21:58:11
(UTC+00:00)

SL-14 R/B - Pass Details

Date: 18 September 2020
Orbit: 518 x 554 km, 82.4° (Epoch: 20 October)

Event Time Altitude Azimuth Distance (km) Brightness Sun altitude
Rises 19:10:50 0° 358° (N) 2,671 7.2 -18.4°
Reaches altitude 10° 19:13:10 10° 9° (N) 1,782 6.1 -18.7°
Enters shadow 19:16:06 29° 55° (NE) 989 4.3 -19.2°
